Location: Aletheia Temple Church
(32.7174°N, 97.2485°W)
Time: 05:51:13
(UTC+00:00)

BlueWalker 3 - Visible Passes

Search period start: 14 October 2024 00:00
Search period end: 24 October 2024 00:00
Orbit: 472 x 484 km, 53.2° (Epoch: 13 October)

Date Brightness Start Highest point End Pass type
(mag) Time Alt. Az. Time Alt. Az. Time Alt. Az.
21 Oct 3.2 11:55:25 10° NNW 11:58:52 37° NE 12:02:18 10° ESE visible
22 Oct 3.4 11:26:57 11° NNW 11:30:08 32° NE 11:33:28 10° ESE visible
23 Oct 3.6 10:59:54 21° N 11:01:23 28° NE 11:04:35 10° E visible
